Powrót do katalogu

FENGYUN 1C DEB

AktywnySSO
NORAD 31383·DEBRIS·🇨🇳 China

Wystrzelony May 10, 1999 z Taiyuan Satellite Launch Center

Loading…

Następne Przeloty (najbliższe 24 godziny)

TLE

ŚwieżeSource: Space-Track

Epoka: Sep 14, 2026, 10:14 UTC

1 31383U 99025BSP 26257.42650615  .00000815  00000-0  49620-3 0  9992
2 31383  99.0426 324.2732 0106986 269.3310 153.5638 14.06262163992436

Śledź FENGYUN 1C DEB w czasie rzeczywistym z AllMySat

Download on the App Store